This is the latest recevied weather packets stored in our database for station/object KB3UMW-13. If no packets are shown the sender has not sent any weather packets the latest 10 day(s).
| Time | Temp. | Humidity | Pressure | Rain* | Wind** | Luminosity | Snow |
|---|---|---|---|---|---|---|---|
| 1777388386 | 11.67° C | 98% | 1015.8 hPa | 0 mm | - | 246 W/m² | - |
| 1777388085 | 11.67° C | 98% | 1015.9 hPa | 0 mm | - | 156 W/m² | - |
| 1777387782 | 11.11° C | 99% | 1016 hPa | 0 mm | - | 174 W/m² | - |
| 1777387478 | 10.56° C | 98% | 1015.8 hPa | 0 mm | - | 139 W/m² | - |
| 1777387173 | 10.56° C | 99% | 1015.7 hPa | 0 mm | - | 102 W/m² | - |
| 1777386869 | 11.11° C | 99% | 1016 hPa | 0 mm | - | 87 W/m² | - |
| 1777386566 | 10.56° C | 98% | 1015.9 hPa | 0 mm | - | 118 W/m² | - |
| 1777386263 | 11.11° C | 98% | 1015.8 hPa | 0 mm | - | 113 W/m² | - |
| 1777385961 | 11.11° C | 99% | 1015.9 hPa | 0 mm | - | 106 W/m² | - |
| 1777385657 | 10.56° C | 99% | 1016 hPa | 0 mm | - | 81 W/m² | - |
| 1777385354 | 10.56° C | 98% | 1015.9 hPa | 0 mm | - | 108 W/m² | - |
| 1777385051 | 11.11° C | 99% | 1016 hPa | 0 mm | - | 87 W/m² | - |
| 1777384748 | 10.56° C | 99% | 1016.1 hPa | 0 mm | - | 89 W/m² | - |
| 1777384442 | 10.56° C | 98% | 1016.3 hPa | 0 mm | - | 126 W/m² | - |
| 1777384138 | 10.56° C | 99% | 1016.1 hPa | 0 mm | - | 143 W/m² | - |
| 1777383835 | 10° C | 99% | 1016.1 hPa | 0 mm | - | 178 W/m² | - |
| 1777383530 | 10° C | 99% | 1016.1 hPa | 0 mm | - | 105 W/m² | - |
| 1777383227 | 10° C | 99% | 1016.1 hPa | 0 mm | - | 75 W/m² | - |
| 1777382924 | 10° C | 98% | 1016.1 hPa | 0 mm | - | 100 W/m² | - |
| 1777382619 | 10° C | 99% | 1016.1 hPa | 0 mm | - | 145 W/m² | - |
| 1777382315 | 10° C | 99% | 1015.9 hPa | 0 mm | - | 114 W/m² | - |
| 1777382012 | 10° C | 99% | 1016 hPa | 0 mm | - | 62 W/m² | - |
| 1777381706 | 9.44° C | 98% | 1015.9 hPa | 0 mm | - | 139 W/m² | - |
| 1777381402 | 9.44° C | 97% | 1016.1 hPa | 0 mm | - | 30 W/m² | - |
| 1777381098 | 9.44° C | 97% | 1016.1 hPa | 0 mm | - | 41 W/m² | - |
* Rain latest hour (hover to see other rain measurements)
** Current wind speed in m/s (hover to see current wind gust speed)